カタログに戻る

FENGYUN 1C DEB

運用中PO
NORAD 29920·DEBRIS·🇨🇳 China

打ち上げ May 10, 1999 から Taiyuan Satellite Launch Center

Loading…

次のパス (今後24時間)

TLE

経年Source: Space-Track

元期: Sep 9, 2026, 07:59 UTC

1 29920U 99025HS  26252.33284093  .00001130  00000-0  68638-3 0  9995
2 29920  98.3736  91.0985 0123046 233.7597 125.2149 14.04416993   762

AllMySatでFENGYUN 1C DEBをリアルタイム追跡

Download on the App Store